Regional Weather Roundup
Issued by NWS

Home | Current Version | Previous Version | Text Only | Print | Product List | Glossary On
Versions: 1 2 3 4 5 6 7 8 9 10 11 12 13 14 15 16 17 18 19 20 21 22 23 24 25 26 27 28 29 30 31 32 33 34 35 36 37 38 39 40 41 42 43 44 45 46 47 48 49 50
000
ASUS43 KDMX 200101
RWRIA

WEATHER ROUNDUP FOR IOWA
NATIONAL WEATHER SERVICE DES MOINES IA
700 PM CST SUN NOV 19 2017

NOTE: "FAIR" INDICATES FEW OR NO CLOUDS BELOW 12,000 FEET WITH NO
SIGNIFICANT WEATHER AND/OR OBSTRUCTIONS TO VISIBILITY.

* - THESE STATIONS ARE NOT NWS STATIONS...THUS NOT UNDER NWS
QUALITY CONTROL.  THEY ALSO DO NOT REPORT WEATHER SUCH
AS PRECIPITATION OR FOG.

IAZ001>003-012>014-020>022-031>034-043>046-200200-
   NORTHWEST IOWA

CITY           SKY/WX    TMP DP  RH WIND       PRES   REMARKS
CARROLL *      CLOUDY    34  27  75 S7        29.95F WCI  28
DENISON *      CLOUDY    41  27  56 SW5       29.95F
LE MARS *      CLOUDY    41  27  56 CALM      29.91R
ORANGE CITY *  CLOUDY    45  28  53 SW7       29.90S
SHELDON *      CLOUDY    37  27  65 S7        29.88S WCI  32
SIOUX CITY     CLOUDY    43  26  51 S6        29.91F
SPENCER        PTCLDY    39  28  64 S8        29.90F WCI  33
STORM LAKE *   CLOUDY    37  28  70 S9        29.92S WCI  31
$$

IAZ055>058-069>071-079>083-090>094-200200-
   SOUTHWEST IOWA

CITY           SKY/WX    TMP DP  RH WIND       PRES   REMARKS
ATLANTIC *     CLOUDY    36  28  75 SW10      29.97F WCI  28
AUDUBON *      CLOUDY    37  28  70 S3        29.97F
CLARINDA *       N/A     37  28  70 S7        30.02  WCI  32
COUNCIL BLFS * CLEAR     48  27  43 S12G17    29.96F
CRESTON *      CLEAR     37  28  70 S14       30.02S WCI  29
HARLAN  *      PTCLDY    39  30  70 S7        29.99F WCI  34
LAMONI         CLEAR     39  27  62 S12       30.03F WCI  32
RED OAK *      CLEAR     39  27  60 SW6       29.99F WCI  35
SHENANDOAH *   CLEAR     45  27  49 S8        30.01S
$$

IAZ047>049-059>061-072>074-084-200200-
   CENTRAL IOWA

CITY           SKY/WX    TMP DP  RH WIND       PRES   REMARKS
AMES           CLOUDY    38  28  67 S7        29.99S WCI  33
ANKENY *       CLOUDY    37  27  65 S7        30.02S WCI  32
BOONE *        CLOUDY    37  28  70 S8        29.97F WCI  31
CHARITON *     CLOUDY    37  27  65 S10       30.03S WCI  30
DES MOINES     CLOUDY    39  26  59 S9        30.01S WCI  33
GRINNELL*      CLOUDY    36  26  67 S12       30.03F WCI  28
KNOXVILLE *    CLOUDY    37  25  60 S7        30.02S WCI  32
MARSHALLTOWN   CLOUDY    36  26  67 S7        30.00S WCI  30
NEWTON *       CLOUDY    34  25  69 S8        30.02S WCI  27
PELLA *        CLOUDY    36  26  66 S7        30.05S WCI  30
PERRY *          N/A     32  27  82 S8        29.98F WCI  25
$$

IAZ004>006-015-016-023>025-035-036-200200-
   NORTH CENTRAL IOWA

CITY           SKY/WX    TMP DP  RH WIND       PRES   REMARKS
ALGONA *       CLOUDY    36  28  75 S10       29.92F WCI  28
CLARION *      CLOUDY    34  30  86 S10       29.96S WCI  26
ESTHERVILLE    CLOUDY    33  25  72 S9        29.90F WCI  25
FORT DODGE *   CLOUDY    40  28  62 S10       29.95F WCI  33
MASON CITY     CLOUDY    36  26  67 SW14      29.95F WCI  27
FOREST CITY *    N/A     36  30  80 S7        29.93F WCI  30
WEBSTER CITY * CLOUDY    36  27  69 S12       29.94F WCI  27
IOWA FALLS *     N/A     37  29  70 S10       29.99S WCI  30
$$

IAZ007>011-017>019-026>030-037>042-050>054-066-200200-
   NORTHEAST IOWA

CITY           SKY/WX    TMP DP  RH WIND       PRES   REMARKS
CEDAR RAPIDS   CLOUDY    32  23  69 S7        30.04S WCI  26
CHARLES CITY * CLOUDY    32  27  80 S8        29.96F WCI  25
CLINTON *      CLEAR     27  21  78 S7        30.08S WCI  19
DECORAH *      CLEAR     34  25  69 S8G16     29.94F WCI  27
DUBUQUE        CLEAR     28  21  75 SW13      30.01S WCI  17
MONTICELLO *   CLEAR     28  21  74 S6        30.03F WCI  22
OELWEIN *      CLEAR     32  27  80 S10       29.99F WCI  24
WATERLOO       CLOUDY    33  24  69 S7        29.99F WCI  27
$$

IAZ064-065-067-068-078-200200-
   EAST CENTRAL IOWA

CITY           SKY/WX    TMP DP  RH WIND       PRES   REMARKS
DAVENPORT      CLEAR     31  21  66 SW9       30.09F WCI  23
IOWA CITY      CLOUDY    34  22  61 S3        30.08S
MT. PLEASANT * CLOUDY    33  24  70 S9        30.09F WCI  26
MUSCATINE *    CLEAR     32  23  69 S10       30.09F WCI  24
QUAD CITIES    CLEAR     32  20  61 S6        30.08S WCI  26
$$

IAZ062-063-075>077-085>089-095>099-200200-
   SOUTHEAST IOWA

CITY           SKY/WX    TMP DP  RH WIND       PRES   REMARKS
BURLINGTON     CLEAR     33  25  72 S7        30.10S WCI  27
FAIRFIELD *    CLOUDY    34  23  64 S8        30.06F WCI  27
FORT MADISON * CLEAR     36  27  69 S7        30.11S WCI  30
KEOKUK *       CLOUDY    36  25  64 S8        30.10F WCI  29
OSKALOOSA *      N/A     32  26  78 S8        30.05F WCI  25
OTTUMWA        PTCLDY    35  25  66 S10       30.05F WCI  27
WASHINGTON *   CLOUDY    34  25  69 S12       30.07F WCI  25
$$

ABBREVIATIONS USED IN REMARKS
   TC - TEMPERATURES IN CELSIUS
  WCI - WIND CHILL INDEX
   HX - HEAT INDEX
  VSB - VISIBILITY
$$





USA.gov is the U.S. government's official web portal to all federal, state and local government web resources and services.